QPF
0.05 0.05 0.06 0.06 0.06 0.04 0.03 0.03 0.03 0.04 0.05 0.06 0.08 0.06 0.04 0.05 0.07 0.08 0.06 0.05 0.06 0.06 0.08 0.08 0.07 0.08 0.08 0.08 0.10 0.11 0.11 0.09 0.07 0.06 0.05 0.05 0.04 0.04 0.05 0.05 0.05 0.05 0.05
0.05 0.05 0.06 0.05 0.04 0.03 0.02 0.02 0.02 0.02 0.02 0.02 0.03 0.03 0.03 0.04 0.04 0.04 0.04 0.04 0.04 0.04 0.05 0.06 0.08 0.09 0.08 0.08 0.09 0.11 0.11 0.10 0.08 0.07 0.06 0.05 0.04 0.05 0.04 0.04 0.05 0.06 0.05
0.06 0.06 0.04 0.05 0.05 0.04 0.02 0.01 0.01 0.01 0.01 0.01 0.02 0.02 0.02 0.02 0.02 0.02 0.02 0.02 0.02 0.03 0.03 0.04 0.06 0.07 0.09 0.08 0.08 0.07 0.08 0.09 0.09 0.09 0.09 0.07 0.06 0.05 0.04 0.04 0.04 0.05 0.04
0.06 0.04 0.03 0.03 0.05 0.05 0.03 0.02 0.02 0.02 0.02 0.02 0.01 0.01 0.01 0.01 0.01 0.01 0.01 0.02 0.02 0.02 0.02 0.03 0.03 0.04 0.06 0.06 0.06 0.07 0.07 0.08 0.09 0.09 0.10 0.09 0.07 0.06 0.04 0.03 0.03 0.03 0.03
0.05 0.04 0.03 0.03 0.03 0.04 0.04 0.02 0.02 0.02 0.02 0.01 0.01 0.00 0.01 0.01 0.01 0.00 0.01 0.01 0.02 0.02 0.01 0.02 0.03 0.04 0.04 0.04 0.05 0.05 0.06 0.08 0.08 0.09 0.09 0.10 0.09 0.07 0.05 0.04 0.03 0.03 0.03
0.05 0.04 0.04 0.04 0.03 0.03 0.03 0.03 0.02 0.01 0.01 0.01 0.01 0.01 0.01 0.01 0.00 0.01 0.01 0.01 0.01 0.02 0.01 0.01 0.02 0.02 0.03 0.03 0.04 0.05 0.06 0.08 0.09 0.08 0.08 0.09 0.09 0.08 0.05 0.04 0.04 0.03 0.03
0.06 0.05 0.05 0.04 0.03 0.02 0.02 0.02 0.02 0.01 0.01 0.01 0.01 0.01 0.01 0.01 0.00 0.01 0.01 0.01 0.01 0.01 0.02 0.01 0.00 0.01 0.01 0.02 0.03 0.06 0.09 0.09 0.09 0.07 0.07 0.07 0.07 0.06 0.05 0.04 0.04 0.04 0.05
0.05 0.05 0.05 0.04 0.03 0.03 0.03 0.02 0.02 0.02 0.01 0.02 0.02 0.01 0.01 0.01 0.01 0.00 0.01 0.01 0.01 0.02 0.02 0.01 0.01 0.01 0.01 0.01 0.03 0.05 0.08 0.09 0.09 0.08 0.07 0.06 0.06 0.05 0.05 0.04 0.03 0.04 0.05
0.04 0.04 0.05 0.04 0.03 0.03 0.03 0.02 0.02 0.02 0.01 0.02 0.02 0.03 0.02 0.01 0.01 0.01 0.01 0.01 0.02 0.02 0.02 0.02 0.02 0.01 0.01 0.01 0.02 0.03 0.05 0.06 0.07 0.07 0.06 0.07 0.05 0.04 0.04 0.04 0.04 0.03 0.04
0.04 0.03 0.04 0.04 0.04 0.03 0.03 0.02 0.02 0.02 0.02 0.02 0.02 0.02 0.02 0.02 0.02 0.01 0.01 0.01 0.01 0.02 0.02 0.02 0.02 0.02 0.02 0.02 0.02 0.02 0.02 0.03 0.04 0.05 0.06 0.07 0.06 0.05 0.04 0.03 0.04 0.04 0.03
0.08 0.06 0.05 0.03 0.02 0.02 0.02 0.02 0.02 0.02 0.02 0.02 0.02 0.02 0.02 0.03 0.03 0.03 0.01 0.01 0.01 0.01 0.01 0.02 0.02 0.01 0.01 0.02 0.02 0.03 0.03 0.03 0.04 0.04 0.04 0.05 0.07 0.06 0.07 0.06 0.05 0.05 0.04
0.06 0.06 0.06 0.04 0.03 0.02 0.02 0.02 0.02 0.02 0.02 0.02 0.02 0.02 0.02 0.03 0.03 0.04 0.03 0.01 0.01 0.01 0.02 0.03 0.02 0.02 0.02 0.02 0.02 0.02 0.03 0.05 0.04 0.03 0.03 0.03 0.05 0.07 0.08 0.09 0.07 0.06 0.05
0.04 0.04 0.05 0.04 0.03 0.02 0.01 0.01 0.01 0.02 0.02 0.02 0.02 0.02 0.03 0.04 0.04 0.05 0.04 0.02 0.01 0.01 0.02 0.04 0.04 0.03 0.02 0.02 0.03 0.03 0.04 0.05 0.04 0.04 0.03 0.03 0.03 0.05 0.06 0.07 0.07 0.06 0.06
0.04 0.04 0.04 0.04 0.03 0.03 0.02 0.02 0.02 0.02 0.02 0.02 0.02 0.02 0.03 0.03 0.03 0.04 0.04 0.04 0.03 0.02 0.03 0.03 0.04 0.04 0.02 0.02 0.03 0.03 0.03 0.04 0.03 0.04 0.04 0.04 0.02 0.03 0.04 0.04 0.05 0.06 0.06
0.04 0.04 0.04 0.04 0.04 0.04 0.03 0.03 0.03 0.03 0.03 0.02 0.03 0.02 0.02 0.02 0.02 0.02 0.03 0.04 0.03 0.03 0.04 0.03 0.05 0.05 0.05 0.03 0.03 0.05 0.04 0.05 0.05 0.04 0.04 0.04 0.03 0.02 0.03 0.03 0.03 0.04 0.05
0.03 0.03 0.03 0.03 0.04 0.04 0.03 0.03 0.02 0.02 0.02 0.03 0.03 0.02 0.02 0.02 0.02 0.02 0.01 0.02 0.02 0.03 0.02 0.02 0.02 0.05 0.07 0.05 0.05 0.05 0.06 0.05 0.05 0.04 0.05 0.04 0.03 0.03 0.02 0.03 0.03 0.03 0.04
0.03 0.02 0.03 0.03 0.03 0.02 0.01 0.01 0.01 0.01 0.02 0.02 0.02 0.02 0.02 0.02 0.02 0.01 0.01 0.01 0.01 0.02 0.01 0.01 0.02 0.03 0.06 0.06 0.04 0.04 0.05 0.04 0.04 0.04 0.04 0.04 0.04 0.04 0.04 0.04 0.03 0.03 0.03
0.04 0.03 0.03 0.03 0.01 0.01 0.01 0.01 0.01 0.01 0.01 0.02 0.02 0.03 0.02 0.02 0.02 0.02 0.01 0.01 0.01 0.01 0.02 0.02 0.01 0.02 0.02 0.04 0.05 0.07 0.06 0.05 0.04 0.04 0.03 0.03 0.02 0.02 0.03 0.03 0.04 0.05 0.06
0.03 0.02 0.02 0.01 0.00 0.00 0.01 0.01 0.01 0.01 0.01 0.01 0.02 0.02 0.01 0.01 0.02 0.01 0.01 0.01 0.01 0.01 0.02 0.02 0.02 0.02 0.02 0.02 0.04 0.05 0.04 0.04 0.03 0.03 0.03 0.03 0.02 0.02 0.03 0.03 0.04 0.06 0.05
0.02 0.02 0.01 0.00 0.00 0.00 0.00 0.01 0.00 0.00 0.00 0.01 0.01 0.01 0.01 0.02 0.01 0.01 0.01 0.01 0.01 0.02 0.03 0.04 0.03 0.03 0.03 0.04 0.05 0.05 0.05 0.04 0.03 0.03 0.03 0.02 0.03 0.03 0.03 0.03 0.04 0.06 0.06
0.01 0.01 0.01 0.01 0.01 0.00 0.00 0.00 0.00 0.00 0.01 0.01 0.01 0.01 0.02 0.02 0.02 0.02 0.02 0.02 0.02 0.04 0.05 0.06 0.05 0.04 0.04 0.05 0.06 0.06 0.05 0.06 0.05 0.04 0.03 0.03 0.03 0.03 0.04 0.04 0.05 0.06 0.07
0.01 0.01 0.01 0.00 0.01 0.01 0.00 0.00 0.00 0.00 0.00 0.01 0.01 0.01 0.01 0.01 0.01 0.02 0.02 0.02 0.02 0.03 0.05 0.05 0.06 0.05 0.05 0.05 0.06 0.06 0.06 0.06 0.06 0.05 0.03 0.03 0.03 0.04 0.04 0.03 0.04 0.06 0.09
0.01 0.01 0.01 0.01 0.01 0.01 0.00 0.00 0.01 0.01 0.01 0.01 0.01 0.01 0.01 0.01 0.01 0.02 0.02 0.02 0.02 0.02 0.02 0.03 0.04 0.06 0.06 0.06 0.05 0.05 0.07 0.08 0.07 0.06 0.04 0.03 0.02 0.02 0.03 0.04 0.05 0.04 0.06
0.00 0.00 0.01 0.01 0.01 0.01 0.00 0.00 0.01 0.01 0.00 0.01 0.01 0.01 0.01 0.01 0.01 0.02 0.03 0.02 0.02 0.02 0.02 0.02 0.02 0.02 0.03 0.04 0.04 0.04 0.06 0.08 0.10 0.08 0.06 0.04 0.03 0.02 0.02 0.02 0.03 0.03 0.04
0.01 0.01 0.01 0.01 0.01 0.01 0.01 0.01 0.01 0.00 0.00 0.01 0.01 0.02 0.02 0.02 0.02 0.02 0.03 0.02 0.01 0.01 0.02 0.02 0.02 0.02 0.03 0.04 0.04 0.03 0.04 0.07 0.08 0.08 0.06 0.04 0.03 0.02 0.02 0.02 0.02 0.02 0.02
0.01 0.01 0.01 0.01 0.01 0.01 0.01 0.01 0.01 0.00 0.00 0.01 0.01 0.01 0.01 0.01 0.02 0.02 0.03 0.03 0.02 0.01 0.01 0.01 0.02 0.02 0.02 0.03 0.04 0.04 0.04 0.05 0.06 0.06 0.04 0.03 0.02 0.02 0.02 0.02 0.02 0.02 0.02
MSLP
1008.88 1008.92 1008.95 1008.99 1009.11 1009.32 1009.64 1010.05 1010.53 1011.02 1011.47 1011.84 1012.12 1012.28 1012.35 1012.35 1012.31 1012.25 1012.19 1012.13 1012.08 1012.03 1012.00 1011.96 1011.95 1011.95 1011.98 1012.05 1012.15 1012.27 1012.42 1012.58 1012.75 1012.92 1013.09 1013.27 1013.45 1013.65 1013.86 1014.08 1014.32 1014.57 1014.84
1008.37 1008.39 1008.42 1008.49 1008.64 1008.90 1009.26 1009.71 1010.20 1010.70 1011.15 1011.51 1011.76 1011.90 1011.94 1011.91 1011.83 1011.74 1011.66 1011.59 1011.54 1011.51 1011.49 1011.48 1011.49 1011.50 1011.53 1011.57 1011.64 1011.72 1011.83 1011.96 1012.12 1012.30 1012.50 1012.72 1012.95 1013.19 1013.44 1013.69 1013.94 1014.19 1014.46
1007.93 1007.95 1008.00 1008.11 1008.31 1008.61 1009.01 1009.47 1009.97 1010.44 1010.86 1011.19 1011.41 1011.51 1011.51 1011.45 1011.34 1011.22 1011.10 1011.01 1010.95 1010.91 1010.90 1010.90 1010.92 1010.94 1010.96 1010.99 1011.04 1011.10 1011.18 1011.29 1011.43 1011.62 1011.83 1012.08 1012.35 1012.63 1012.91 1013.19 1013.46 1013.72 1013.99
1007.59 1007.61 1007.69 1007.86 1008.11 1008.45 1008.87 1009.32 1009.79 1010.22 1010.59 1010.86 1011.03 1011.10 1011.08 1010.99 1010.86 1010.71 1010.57 1010.45 1010.36 1010.30 1010.27 1010.26 1010.27 1010.30 1010.32 1010.35 1010.39 1010.44 1010.51 1010.61 1010.75 1010.94 1011.17 1011.43 1011.73 1012.03 1012.33 1012.63 1012.90 1013.17 1013.45
1007.36 1007.39 1007.51 1007.73 1008.02 1008.39 1008.80 1009.22 1009.63 1010.00 1010.29 1010.51 1010.64 1010.68 1010.65 1010.56 1010.43 1010.28 1010.12 1009.97 1009.84 1009.75 1009.68 1009.65 1009.64 1009.66 1009.69 1009.73 1009.78 1009.83 1009.91 1010.02 1010.16 1010.35 1010.59 1010.86 1011.16 1011.46 1011.77 1012.06 1012.33 1012.59 1012.85
1007.24 1007.29 1007.44 1007.69 1008.02 1008.38 1008.76 1009.13 1009.47 1009.75 1009.98 1010.14 1010.23 1010.28 1010.26 1010.20 1010.10 1009.97 1009.81 1009.64 1009.48 1009.33 1009.22 1009.15 1009.11 1009.12 1009.15 1009.20 1009.27 1009.36 1009.46 1009.58 1009.73 1009.93 1010.16 1010.42 1010.71 1011.00 1011.29 1011.55 1011.80 1012.04 1012.27
1007.23 1007.28 1007.46 1007.72 1008.05 1008.40 1008.73 1009.03 1009.28 1009.49 1009.64 1009.77 1009.86 1009.93 1009.96 1009.97 1009.92 1009.83 1009.69 1009.52 1009.32 1009.13 1008.97 1008.84 1008.77 1008.75 1008.78 1008.85 1008.95 1009.06 1009.19 1009.34 1009.50 1009.70 1009.92 1010.16 1010.42 1010.68 1010.92 1011.15 1011.36 1011.55 1011.74
1007.31 1007.35 1007.53 1007.79 1008.10 1008.41 1008.69 1008.92 1009.09 1009.22 1009.33 1009.44 1009.55 1009.67 1009.78 1009.87 1009.91 1009.88 1009.78 1009.61 1009.40 1009.17 1008.95 1008.77 1008.65 1008.60 1008.62 1008.70 1008.81 1008.95 1009.10 1009.27 1009.44 1009.63 1009.83 1010.05 1010.27 1010.48 1010.68 1010.86 1011.01 1011.15 1011.28
1007.43 1007.46 1007.62 1007.87 1008.15 1008.42 1008.64 1008.81 1008.92 1009.00 1009.09 1009.20 1009.35 1009.53 1009.73 1009.92 1010.05 1010.10 1010.04 1009.90 1009.67 1009.41 1009.14 1008.91 1008.75 1008.66 1008.66 1008.72 1008.83 1008.98 1009.14 1009.31 1009.48 1009.65 1009.83 1010.01 1010.19 1010.35 1010.50 1010.62 1010.72 1010.80 1010.89
1007.57 1007.57 1007.71 1007.93 1008.19 1008.42 1008.60 1008.72 1008.80 1008.86 1008.94 1009.07 1009.26 1009.51 1009.79 1010.06 1010.28 1010.40 1010.39 1010.27 1010.05 1009.77 1009.47 1009.20 1008.99 1008.86 1008.82 1008.85 1008.94 1009.06 1009.21 1009.35 1009.50 1009.65 1009.79 1009.94 1010.07 1010.20 1010.30 1010.38 1010.44 1010.48 1010.51
1007.67 1007.64 1007.76 1007.96 1008.19 1008.40 1008.57 1008.67 1008.74 1008.80 1008.89 1009.04 1009.27 1009.57 1009.91 1010.24 1010.51 1010.68 1010.72 1010.63 1010.43 1010.14 1009.82 1009.52 1009.27 1009.10 1009.01 1008.99 1009.03 1009.11 1009.20 1009.31 1009.41 1009.52 1009.62 1009.73 1009.84 1009.93 1010.01 1010.07 1010.09 1010.10 1010.10
1007.70 1007.64 1007.74 1007.92 1008.15 1008.37 1008.54 1008.66 1008.75 1008.82 1008.93 1009.10 1009.35 1009.66 1010.02 1010.37 1010.66 1010.86 1010.93 1010.86 1010.68 1010.40 1010.09 1009.78 1009.50 1009.29 1009.15 1009.06 1009.03 1009.03 1009.06 1009.09 1009.14 1009.19 1009.26 1009.34 1009.42 1009.50 1009.57 1009.62 1009.64 1009.64 1009.62
1007.63 1007.55 1007.63 1007.82 1008.06 1008.31 1008.51 1008.67 1008.79 1008.90 1009.02 1009.19 1009.43 1009.72 1010.05 1010.38 1010.66 1010.86 1010.93 1010.89 1010.73 1010.50 1010.21 1009.91 1009.62 1009.38 1009.18 1009.03 1008.91 1008.82 1008.75 1008.70 1008.67 1008.67 1008.69 1008.74 1008.81 1008.89 1008.96 1009.02 1009.05 1009.05 1009.04
1007.46 1007.37 1007.45 1007.65 1007.92 1008.21 1008.47 1008.68 1008.85 1008.99 1009.12 1009.28 1009.48 1009.72 1009.98 1010.25 1010.48 1010.65 1010.72 1010.70 1010.58 1010.39 1010.15 1009.88 1009.60 1009.34 1009.10 1008.87 1008.67 1008.48 1008.31 1008.16 1008.05 1007.98 1007.96 1007.99 1008.05 1008.13 1008.21 1008.28 1008.33 1008.35 1008.35
1007.21 1007.11 1007.19 1007.42 1007.73 1008.07 1008.39 1008.67 1008.89 1009.05 1009.19 1009.32 1009.46 1009.62 1009.80 1009.98 1010.14 1010.26 1010.32 1010.32 1010.25 1010.11 1009.93 1009.71 1009.46 1009.20 1008.92 1008.63 1008.34 1008.05 1007.78 1007.54 1007.35 1007.21 1007.15 1007.14 1007.19 1007.27 1007.36 1007.45 1007.51 1007.55 1007.56
1006.91 1006.81 1006.90 1007.15 1007.50 1007.90 1008.28 1008.62 1008.88 1009.07 1009.20 1009.29 1009.37 1009.44 1009.52 1009.60 1009.69 1009.76 1009.80 1009.82 1009.79 1009.72 1009.60 1009.44 1009.23 1008.97 1008.67 1008.34 1007.97 1007.59 1007.23 1006.90 1006.63 1006.43 1006.32 1006.28 1006.30 1006.37 1006.45 1006.54 1006.60 1006.65 1006.67
1006.63 1006.52 1006.63 1006.89 1007.27 1007.71 1008.14 1008.52 1008.82 1009.03 1009.15 1009.21 1009.22 1009.20 1009.19 1009.19 1009.19 1009.22 1009.25 1009.28 1009.29 1009.28 1009.22 1009.11 1008.94 1008.70 1008.38 1008.01 1007.59 1007.14 1006.70 1006.29 1005.95 1005.69 1005.52 1005.44 1005.43 1005.46 1005.52 1005.58 1005.63 1005.66 1005.69
1006.40 1006.30 1006.40 1006.68 1007.07 1007.53 1007.99 1008.39 1008.71 1008.93 1009.04 1009.07 1009.03 1008.95 1008.86 1008.78 1008.73 1008.71 1008.73 1008.76 1008.80 1008.83 1008.82 1008.75 1008.60 1008.37 1008.05 1007.65 1007.18 1006.68 1006.19 1005.72 1005.32 1005.00 1004.78 1004.64 1004.57 1004.55 1004.55 1004.56 1004.57 1004.58 1004.60
1006.28 1006.17 1006.27 1006.54 1006.92 1007.38 1007.84 1008.25 1008.58 1008.79 1008.90 1008.90 1008.82 1008.70 1008.56 1008.43 1008.33 1008.27 1008.26 1008.29 1008.34 1008.38 1008.39 1008.34 1008.21 1007.98 1007.65 1007.23 1006.74 1006.21 1005.67 1005.16 1004.72 1004.35 1004.06 1003.86 1003.72 1003.62 1003.55 1003.49 1003.45 1003.41 1003.40
1006.28 1006.16 1006.25 1006.49 1006.85 1007.28 1007.71 1008.11 1008.42 1008.62 1008.72 1008.71 1008.61 1008.46 1008.29 1008.12 1007.99 1007.90 1007.86 1007.86 1007.89 1007.91 1007.91 1007.85 1007.71 1007.47 1007.14 1006.71 1006.21 1005.67 1005.12 1004.59 1004.11 1003.70 1003.35 1003.08 1002.85 1002.67 1002.51 1002.37 1002.25 1002.16 1002.12
1006.40 1006.28 1006.34 1006.54 1006.86 1007.23 1007.62 1007.97 1008.25 1008.44 1008.52 1008.50 1008.40 1008.24 1008.05 1007.86 1007.69 1007.56 1007.48 1007.43 1007.41 1007.39 1007.35 1007.26 1007.09 1006.84 1006.50 1006.07 1005.57 1005.04 1004.49 1003.96 1003.46 1003.01 1002.61 1002.27 1001.96 1001.68 1001.43 1001.20 1001.01 1000.86 1000.78
1006.62 1006.50 1006.53 1006.68 1006.94 1007.24 1007.56 1007.86 1008.09 1008.25 1008.31 1008.28 1008.17 1008.01 1007.81 1007.60 1007.41 1007.23 1007.09 1006.98 1006.89 1006.80 1006.70 1006.55 1006.35 1006.07 1005.72 1005.30 1004.83 1004.31 1003.78 1003.26 1002.75 1002.28 1001.84 1001.43 1001.05 1000.68 1000.34 1000.03 999.76 999.56 999.44
1006.92 1006.79 1006.79 1006.90 1007.08 1007.31 1007.55 1007.77 1007.95 1008.06 1008.09 1008.05 1007.94 1007.77 1007.56 1007.34 1007.10 1006.88 1006.67 1006.48 1006.31 1006.14 1005.96 1005.75 1005.50 1005.20 1004.85 1004.44 1003.99 1003.51 1003.01 1002.50 1002.00 1001.51 1001.04 1000.58 1000.13 999.69 999.28 998.90 998.57 998.32 998.17
1007.26 1007.13 1007.10 1007.15 1007.26 1007.41 1007.56 1007.71 1007.82 1007.88 1007.88 1007.82 1007.70 1007.52 1007.30 1007.05 1006.78 1006.50 1006.22 1005.95 1005.69 1005.43 1005.17 1004.90 1004.61 1004.29 1003.93 1003.54 1003.12 1002.67 1002.20 1001.72 1001.23 1000.73 1000.23 999.73 999.23 998.75 998.28 997.85 997.49 997.21 997.03
1007.62 1007.49 1007.43 1007.43 1007.47 1007.54 1007.61 1007.68 1007.72 1007.73 1007.69 1007.61 1007.47 1007.27 1007.03 1006.75 1006.44 1006.10 1005.76 1005.41 1005.07 1004.73 1004.40 1004.08 1003.75 1003.41 1003.05 1002.68 1002.28 1001.86 1001.41 1000.94 1000.45 999.95 999.43 998.90 998.37 997.86 997.36 996.91 996.53 996.24 996.06
1007.95 1007.82 1007.74 1007.70 1007.68 1007.68 1007.68 1007.67 1007.66 1007.61 1007.54 1007.42 1007.26 1007.04 1006.78 1006.47 1006.11 1005.73 1005.33 1004.92 1004.51 1004.11 1003.72 1003.35 1002.99 1002.63 1002.27 1001.90 1001.51 1001.10 1000.66 1000.19 999.70 999.18 998.65 998.10 997.56 997.03 996.53 996.08 995.71 995.42 995.24
Thickness
5727 5726 5725 5723 5722 5721 5720 5719 5717 5716 5716 5715 5715 5715 5714 5713 5712 5712 5712 5712 5712 5711 5711 5711 5711 5710 5709 5709 5708 5707 5707 5706 5705 5705 5704 5703 5703 5702 5702 5703 5703 5703 5703
5723 5721 5719 5719 5718 5717 5716 5715 5714 5712 5712 5711 5710 5710 5710 5708 5708 5708 5707 5707 5707 5707 5706 5706 5706 5706 5706 5705 5705 5704 5703 5703 5702 5702 5701 5700 5700 5699 5699 5699 5700 5700 5700
5719 5718 5716 5715 5714 5713 5712 5710 5709 5708 5707 5706 5705 5705 5705 5704 5703 5703 5702 5702 5702 5701 5701 5701 5701 5701 5701 5701 5701 5700 5699 5699 5699 5698 5698 5697 5696 5696 5696 5696 5697 5697 5697
5715 5713 5712 5711 5711 5709 5707 5705 5703 5701 5700 5699 5698 5699 5699 5698 5698 5698 5697 5697 5697 5696 5696 5696 5696 5696 5696 5696 5696 5696 5695 5695 5694 5694 5694 5693 5693 5692 5692 5693 5693 5694 5695
5711 5710 5708 5707 5706 5704 5702 5700 5698 5696 5693 5693 5693 5693 5693 5692 5692 5692 5693 5693 5693 5693 5692 5692 5691 5691 5691 5691 5691 5691 5691 5691 5690 5690 5690 5690 5689 5689 5689 5689 5690 5691 5691
5706 5706 5704 5703 5701 5699 5696 5694 5692 5691 5689 5688 5688 5688 5687 5687 5687 5687 5687 5688 5688 5688 5687 5687 5686 5686 5686 5686 5687 5687 5687 5686 5686 5686 5686 5686 5685 5685 5685 5685 5686 5687 5688
5703 5701 5699 5697 5696 5693 5691 5689 5687 5685 5683 5682 5679 5678 5680 5681 5681 5682 5682 5682 5682 5683 5682 5681 5681 5680 5680 5681 5682 5682 5682 5681 5682 5682 5682 5682 5681 5681 5681 5681 5681 5683 5684
5698 5697 5694 5692 5691 5689 5686 5684 5682 5679 5678 5677 5672 5668 5666 5669 5672 5677 5677 5677 5677 5677 5676 5676 5675 5675 5675 5675 5676 5677 5677 5677 5677 5677 5677 5677 5677 5676 5676 5676 5677 5678 5679
5695 5693 5690 5688 5686 5684 5681 5680 5678 5675 5671 5670 5669 5663 5658 5656 5661 5667 5669 5670 5670 5670 5670 5670 5669 5669 5670 5670 5670 5671 5671 5672 5672 5673 5673 5673 5673 5673 5673 5673 5673 5674 5675
5691 5690 5688 5685 5682 5680 5678 5676 5675 5672 5668 5664 5662 5661 5659 5656 5652 5654 5659 5662 5663 5663 5663 5664 5664 5664 5665 5665 5665 5666 5666 5667 5667 5668 5668 5668 5669 5669 5669 5669 5669 5669 5670
5686 5686 5684 5682 5679 5677 5675 5672 5670 5667 5665 5661 5658 5656 5653 5651 5650 5646 5647 5651 5654 5656 5656 5657 5657 5659 5659 5659 5660 5661 5661 5662 5662 5663 5663 5663 5664 5664 5665 5665 5665 5665 5665
5681 5680 5679 5677 5675 5673 5671 5668 5666 5663 5660 5658 5655 5652 5649 5646 5645 5643 5641 5643 5644 5648 5650 5651 5652 5653 5653 5654 5655 5656 5656 5657 5657 5658 5658 5659 5659 5659 5659 5659 5660 5661 5661
5675 5674 5674 5672 5670 5668 5667 5665 5662 5659 5656 5653 5651 5648 5646 5644 5643 5640 5638 5638 5638 5640 5642 5644 5647 5647 5648 5648 5649 5651 5651 5652 5652 5653 5653 5653 5654 5654 5654 5654 5655 5655 5656
5672 5671 5670 5668 5667 5665 5663 5661 5658 5655 5652 5649 5648 5645 5642 5641 5639 5638 5636 5633 5631 5631 5633 5636 5640 5641 5642 5642 5643 5644 5645 5646 5646 5647 5647 5647 5648 5648 5648 5648 5649 5650 5651
5670 5669 5667 5664 5663 5661 5659 5657 5654 5651 5648 5645 5643 5641 5638 5637 5636 5634 5633 5630 5627 5624 5625 5629 5631 5634 5635 5636 5637 5637 5638 5639 5640 5640 5641 5641 5641 5642 5642 5642 5643 5644 5645
5667 5665 5662 5660 5658 5656 5654 5651 5649 5646 5643 5641 5639 5637 5634 5632 5631 5630 5628 5626 5624 5621 5620 5623 5625 5627 5629 5630 5630 5631 5632 5633 5633 5633 5634 5634 5635 5636 5636 5637 5637 5638 5639
5664 5661 5659 5656 5653 5651 5649 5646 5643 5641 5639 5636 5634 5632 5630 5628 5626 5624 5623 5621 5619 5617 5616 5618 5619 5621 5622 5622 5623 5624 5624 5625 5625 5626 5627 5627 5628 5629 5630 5631 5631 5632 5633
5660 5657 5655 5652 5649 5646 5644 5641 5639 5637 5634 5631 5629 5627 5625 5624 5621 5619 5617 5616 5615 5613 5611 5610 5612 5613 5614 5615 5616 5616 5617 5618 5618 5619 5620 5621 5622 5622 5623 5625 5626 5627 5628
5656 5653 5651 5647 5645 5642 5640 5638 5635 5633 5630 5627 5625 5622 5620 5618 5616 5614 5612 5611 5610 5610 5606 5604 5604 5606 5606 5607 5607 5608 5609 5609 5611 5612 5613 5613 5614 5616 5617 5618 5620 5620 5621
5652 5649 5646 5644 5641 5638 5636 5634 5631 5628 5626 5623 5621 5618 5616 5614 5612 5610 5608 5606 5604 5602 5600 5598 5598 5598 5598 5599 5598 5598 5599 5600 5602 5604 5605 5606 5607 5608 5609 5611 5612 5613 5614
5648 5645 5642 5639 5637 5635 5632 5630 5627 5624 5621 5618 5616 5614 5612 5610 5609 5606 5605 5602 5599 5596 5594 5592 5591 5591 5591 5590 5590 5591 5591 5592 5594 5596 5596 5597 5599 5600 5601 5603 5603 5605 5606
5643 5640 5638 5635 5632 5631 5629 5626 5623 5619 5616 5612 5610 5609 5608 5606 5605 5603 5602 5599 5597 5592 5589 5587 5586 5585 5586 5586 5586 5587 5585 5585 5585 5588 5588 5589 5591 5592 5594 5595 5596 5598 5598
5639 5636 5633 5631 5628 5626 5625 5622 5620 5615 5611 5608 5605 5603 5603 5602 5599 5597 5596 5595 5593 5590 5588 5585 5583 5582 5582 5583 5583 5582 5581 5580 5581 5582 5581 5582 5584 5585 5588 5589 5590 5591 5592
5636 5633 5630 5627 5625 5623 5621 5618 5615 5611 5607 5604 5602 5599 5596 5595 5594 5592 5590 5588 5586 5586 5585 5583 5582 5582 5581 5581 5580 5580 5578 5577 5577 5577 5577 5575 5578 5579 5583 5583 5584 5584 5584
5633 5630 5627 5624 5621 5619 5618 5615 5612 5607 5603 5601 5599 5596 5594 5592 5591 5589 5586 5583 5582 5582 5582 5581 5580 5579 5579 5579 5577 5574 5572 5570 5570 5571 5571 5570 5571 5572 5574 5576 5577 5577 5577
5631 5628 5625 5622 5619 5616 5614 5611 5608 5603 5600 5597 5595 5594 5592 5590 5589 5586 5582 5579 5577 5577 5577 5576 5575 5575 5575 5574 5573 5570 5569 5566 5564 5564 5567 5565 5564 5564 5565 5568 5569 5569 5569